Tracking 20621 objects as of 29-Mar-2020
HD Live streaming from Space Station
objects crossing your sky now

DELTA 1 DEB

Track DELTA 1 DEB now!
10-day predictions


NORAD ID: 10184
Int'l Code: 1977-065N
Perigee: 520.2 km
Apogee: 1,694.3 km
Inclination: 29.1 °
Period: 107.3 minutes
Semi major axis: 7478 km
RCS: 4.0516 m2 (large)
Launch date: July 14, 1977
Source: United States (US)
Launch site: AIR FORCE EASTERN TEST RANGE (AFETR)

Note: This is SATELLITE DEBRIS
aabbcc
Your satellite tracking list
Your tracking list is empty




NASA's NSSDC Master Catalog

Two Line Element Set (TLE):
1 10184U 77065N   20088.97639210 +.00000140 +00000-0 +10515-4 0  9995
2 10184 029.0785 299.0047 0785048 348.8214 009.5792 13.42468534061278
Source of the keplerian elements: AFSPC